Change the Weather History Date:

Sunday, July 21, 2013

  Actual Average Record
Temperature  
Mean Temperature 60 °F 64 °F  
Max Temperature 72 °F 76 °F 89 °F (2011)
Min Temperature 47 °F 51 °F 36 °F (1950)
Degree Days  
Heating Degree Days 4 3  
Month to date heating degree days 63  
Since 1 June heating degree days 247  
Since 1 July heating degree days 63  
Cooling Degree Days 0 1  
Month to date cooling degree days 94 36  
Year to date cooling degree days 140 65  
Since 1 June cooling degree days 130 62  
Growing Degree Days 12 (Base 50)    
Moisture  
Dew Point 53 °F    
Average Humidity 72    
Maximum Humidity 100    
Minimum Humidity 44    
Precipitation  
Precipitation 0.00 in 0.14 in 1.03 in (1954)
Month to date precipitation 4.82 2.83  
Year to date precipitation 25.10 19.03  
Sea Level Pressure  
Sea Level Pressure 29.96 in    
Wind  
Wind Speed 3 mph (NE)    
Max Wind Speed 10 mph    
Max Gust Speed 17 mph    
Visibility 6 miles    
Events Fog    
T = Trace of Precipitation, MM = Missing Value Source: NWS Daily Summary

Daily Weather History Graph

Daily Weather History Graph

Search for Another Location

Airport or City:

Trip Planner

Search our weather history database for the weather conditions in past years. The results will help you decide how hot, cold, wet, or windy it might be!

Date:

Astronomy

Jul. 21, 2013 Rise Set
Actual Time 5:32 AM EDT 8:33 PM EDT
Civil Twilight 4:57 AM EDT 9:07 PM EDT
Nautical Twilight 4:13 AM EDT 9:52 PM EDT
Astronomical Twilight 3:20 AM EDT 10:44 PM EDT
Moon 7:27 PM EDT (7/21) 4:16 AM EDT (7/21)
Length of Visible Light 16h 10m
Length of Day
15h 00m
Waxing Gibbous, 98% of the Moon is Illuminated
Jul 21
Waxing Gibbous
Jul 22
Full
Jul 29
Last Quarter
Aug 6
New
Aug 14
First Quarter

Hourly Weather History & Observations

Time (EDT) Temp. Dew Point Humidity Pressure Visibility Wind Dir Wind Speed Gust Speed Precip Events Conditions
12:37 AM 57.2 °F 57.2 °F 100% 29.89 in 2.5 mi Calm Calm - N/A   Mostly Cloudy
12:42 AM 57.2 °F 57.2 °F 100% 29.89 in 0.8 mi Calm Calm - N/A   Mostly Cloudy
12:49 AM 57.2 °F 57.2 °F 100% 29.89 in 0.2 mi Calm Calm - N/A Fog Fog
12:50 AM 57.0 °F 57.0 °F 100% 29.88 in 0.2 mi Calm Calm - N/A Fog Fog
1:00 AM 57.2 °F 57.2 °F 100% 29.90 in 1.0 mi Calm Calm - N/A   Mostly Cloudy
1:03 AM 57.2 °F 55.4 °F 94% 29.90 in 3.0 mi Calm Calm - N/A   Mostly Cloudy
1:51 AM 55.9 °F 55.9 °F 100% 29.89 in 2.5 mi Calm Calm - N/A   Scattered Clouds
2:22 AM 55.4 °F 55.4 °F 100% 29.91 in 5.0 mi Calm Calm - N/A   Scattered Clouds
2:33 AM 55.4 °F 55.4 °F 100% 29.91 in 2.0 mi Calm Calm - N/A   Scattered Clouds
2:39 AM 55.4 °F 55.4 °F 100% 29.92 in 1.0 mi Calm Calm - N/A   Mostly Cloudy
2:43 AM 55.4 °F 55.4 °F 100% 29.92 in 1.0 mi Calm Calm - N/A   Mist
2:48 AM 55.4 °F 55.4 °F 100% 29.92 in 0.8 mi Calm Calm - N/A   Mist
2:51 AM 55.0 °F 55.0 °F 100% 29.91 in 0.5 mi Calm Calm - N/A Fog Fog
3:40 AM 53.6 °F 53.6 °F 100% 29.93 in 0.8 mi Calm Calm - 0.01 in   Overcast
3:47 AM 53.6 °F 53.6 °F 100% 29.93 in 2.0 mi Calm Calm - 0.01 in   Overcast
3:51 AM 53.1 °F 52.0 °F 96% 29.92 in 5.0 mi Calm Calm - 0.01 in   Mostly Cloudy
4:51 AM 54.0 °F 53.1 °F 97% 29.94 in 10.0 mi Calm Calm - N/A   Scattered Clouds
5:04 AM 53.6 °F 53.6 °F 100% 29.96 in 10.0 mi Calm Calm - N/A   Mostly Cloudy
5:38 AM 51.8 °F 51.8 °F 100% 29.96 in 7.0 mi Calm Calm - N/A   Scattered Clouds
5:51 AM 52.0 °F 51.1 °F 97% 29.95 in 7.0 mi Calm Calm - N/A   Partly Cloudy
6:51 AM 55.0 °F 53.1 °F 93% 29.97 in 10.0 mi NNE 3.5 mph - N/A   Clear
7:51 AM 55.9 °F 51.1 °F 84% 29.99 in 10.0 mi ENE 5.8 mph - N/A   Partly Cloudy
8:51 AM 59.0 °F 51.1 °F 75% 30.00 in 10.0 mi East 5.8 mph - N/A   Scattered Clouds
9:48 AM 60.8 °F 51.8 °F 72% 30.02 in 10.0 mi ENE 5.8 mph - N/A   Overcast
9:51 AM 60.1 °F 51.1 °F 72% 30.01 in 10.0 mi ENE 5.8 mph - N/A   Overcast
10:51 AM 63.0 °F 53.1 °F 70% 30.01 in 10.0 mi Variable 4.6 mph - N/A   Overcast
11:27 AM 64.4 °F 51.8 °F 64% 30.03 in 10.0 mi Calm Calm - N/A   Overcast
11:51 AM 64.9 °F 51.1 °F 61% 30.02 in 10.0 mi NW 3.5 mph - N/A   Overcast
12:51 PM 68.0 °F 52.0 °F 56% 30.01 in 10.0 mi Calm Calm - N/A   Mostly Cloudy
1:51 PM 70.0 °F 51.1 °F 51% 30.01 in 10.0 mi Calm Calm - N/A   Mostly Cloudy
2:51 PM 70.0 °F 51.1 °F 51% 30.01 in 10.0 mi Variable 3.5 mph - N/A   Mostly Cloudy
3:51 PM 71.1 °F 48.9 °F 45% 30.00 in 10.0 mi Variable 4.6 mph - N/A   Clear
4:51 PM 72.0 °F 48.9 °F 44% 29.99 in 10.0 mi Variable 4.6 mph - N/A   Partly Cloudy
5:51 PM 71.1 °F 48.9 °F 45% 29.99 in 10.0 mi Variable 5.8 mph - N/A   Clear
6:51 PM 69.1 °F 50.0 °F 51% 29.99 in 10.0 mi Variable 4.6 mph - N/A   Clear
7:51 PM 66.9 °F 52.0 °F 59% 30.00 in 10.0 mi North 4.6 mph - N/A   Clear
8:51 PM 57.9 °F 53.1 °F 84% 30.02 in 10.0 mi North 3.5 mph - N/A   Clear
9:51 PM 54.0 °F 52.0 °F 93% 30.04 in 10.0 mi Calm Calm - N/A   Clear
10:51 PM 51.1 °F 50.0 °F 96% 30.05 in 10.0 mi Calm Calm - N/A   Clear
11:51 PM 48.9 °F 48.0 °F 97% 30.05 in 8.0 mi Calm Calm - N/A   Clear